Location: *
(47.2969°N, 10.2930°E)
Time: 04:14:47
(UTC+00:00)

Resurs 01 Rocket - Pass Details

Date: 09 April 2020
Orbit: 634 x 644 km, 98.0° (Epoch: 06 June)

Event Time Altitude Azimuth Distance (km) Brightness Sun altitude
Exits shadow 20:55:19 14° 233° (SW) 1,791 3.9 -26.1°
Maximum altitude 20:57:33 19° 268° (W) 1,519 3.9 -26.3°
Drops below altitude 10° 21:00:43 10° 314° (NW) 2,034 5.2 -26.7°
Sets 21:03:30 0° 333° (NNW) 2,951 6.3 -27.0°
